Weather History for Tekamah, NE

Change the Weather History Date:

Saturday, May 11, 2013

  Actual Average Record
Temperature  
Mean Temperature 51 °F -  
Max Temperature 61 °F 74 °F 93 °F (2000)
Min Temperature 42 °F 49 °F 33 °F (1981)
Degree Days  
Heating Degree Days 14    
Growing Degree Days 1 (Base 50)    
Moisture  
Dew Point 30 °F    
Average Humidity 43    
Maximum Humidity 80    
Minimum Humidity 23    
Precipitation  
Precipitation 0.00 in - - ()
Sea Level Pressure  
Sea Level Pressure 30.20 in    
Wind  
Wind Speed 15 mph (NNW)    
Max Wind Speed 34 mph    
Max Gust Speed 39 mph    
Visibility 10 miles    
Events      
Averages and records for this station are not official NWS values.
T = Trace of Precipitation, MM = Missing Value Source: NWS Daily Summary

Daily Weather History Graph

Daily Weather History Graph

Search for Another Location

Airport:

Trip Planner

Search our weather history database for the weather conditions in past years. The results will help you decide how hot, cold, wet, or windy it might be!

Date:

Astronomy

May. 11, 2013 Rise Set
Actual Time 6:08 AM CDT 8:34 PM CDT
Civil Twilight 5:37 AM CDT 9:05 PM CDT
Nautical Twilight 4:58 AM CDT 9:44 PM CDT
Astronomical Twilight 4:15 AM CDT 10:28 PM CDT
Moon 7:16 AM CDT (5/11) 10:15 PM CDT (5/11)
Length of Visible Light 15h 28m
Length of Day
14h 25m
Waxing Crescent, 3% of the Moon is Illuminated
May 11
Waxing Crescent
May 17
First Quarter
May 24
Full
May 31
Last Quarter
Jun 8
New

Hourly Weather History & Observations

Time (CDT) Temp. Windchill Dew Point Humidity Pressure Visibility Wind Dir Wind Speed Gust Speed Precip Events Conditions
12:54 AM 52.0 °F - 46.0 °F 80% 30.01 in 7.0 mi West 6.9 mph - N/A   Clear
1:54 AM 57.0 °F - 45.0 °F 64% 30.03 in 9.0 mi WNW 15.0 mph - N/A   Mostly Cloudy
2:54 AM 57.0 °F - 45.0 °F 64% 30.06 in 9.0 mi North 20.7 mph - N/A   Clear
3:54 AM 53.1 °F - 39.0 °F 59% 30.10 in 10.0 mi North 18.4 mph - N/A   Clear
4:54 AM 48.9 °F - 37.9 °F 66% 30.13 in 10.0 mi North 11.5 mph - N/A   Clear
5:54 AM 46.0 °F 41.0 °F 34.0 °F 63% 30.16 in 10.0 mi North 10.4 mph - N/A   Clear
6:54 AM 46.9 °F - 35.1 °F 63% 30.19 in 10.0 mi NW 9.2 mph - N/A   Clear
7:54 AM 51.1 °F - 34.0 °F 52% 30.22 in 10.0 mi NNW 12.7 mph - N/A   Clear
8:54 AM 54.0 °F - 30.9 °F 41% 30.23 in 10.0 mi NNW 18.4 mph - N/A   Clear
9:54 AM 57.9 °F - 30.0 °F 35% 30.23 in 10.0 mi NNW 24.2 mph 29.9 mph N/A   Clear
10:54 AM 57.0 °F - 30.0 °F 36% 30.25 in 10.0 mi NNW 28.8 mph 36.8 mph N/A   Clear
11:54 AM 57.9 °F - 28.0 °F 32% 30.26 in 10.0 mi NNW 34.5 mph 39.1 mph N/A   Clear
12:54 PM 59.0 °F - 27.0 °F 29% 30.25 in 10.0 mi NNW 26.5 mph 35.7 mph N/A   Clear
1:54 PM 60.1 °F - 27.0 °F 28% 30.25 in 10.0 mi NNW 17.3 mph 39.1 mph N/A   Clear
2:54 PM 60.1 °F - 24.1 °F 25% 30.26 in 10.0 mi NNW 26.5 mph 34.5 mph N/A   Clear
3:54 PM 60.1 °F - 24.1 °F 25% 30.25 in 10.0 mi NNW 15.0 mph 28.8 mph N/A   Clear
4:54 PM 60.1 °F - 21.9 °F 23% 30.24 in 10.0 mi NW 24.2 mph 31.1 mph N/A   Clear
5:54 PM 60.1 °F - 21.9 °F 23% 30.24 in 10.0 mi NNW 21.9 mph 28.8 mph N/A   Clear
6:54 PM 57.9 °F - 21.9 °F 25% 30.24 in 10.0 mi NNW 19.6 mph 26.5 mph N/A   Clear
7:54 PM 55.9 °F - 19.9 °F 25% 30.23 in 10.0 mi NW 16.1 mph - N/A   Clear
8:54 PM 48.9 °F - 21.9 °F 35% 30.24 in 10.0 mi NW 9.2 mph - N/A   Clear
9:54 PM 45.0 °F 40.6 °F 24.1 °F 44% 30.25 in 10.0 mi NW 8.1 mph - N/A   Clear
10:54 PM 42.1 °F 37.1 °F 24.1 °F 49% 30.25 in 10.0 mi NW 8.1 mph - N/A   Clear
11:54 PM 42.1 °F 38.4 °F 26.1 °F 53% 30.25 in 10.0 mi NNW 5.8 mph - N/A   Clear